Regional Weather Roundup
Issued by NWS Portland, ME

Current Version | Previous Version | Text Only | Print | Product List | Glossary Off
Versions: 1 2 3 4 5 6 7 8 9 10 11 12 13 14 15 16 17 18 19 20 21 22 23 24 25 26 27 28 29 30 31 32 33 34 35 36 37 38 39 40 41 42 43 44 45 46 47 48 49 50
000 ASUS41 KGYX 231610 RWRGYX WEATHER ROUNDUP FOR MAINE AND NEW HAMPSHIRE NATIONAL WEATHER SERVICE GRAY ME 1200 PM EDT MON OCT 23 2017 MEZ002-005-006-010-012-015-018-020-021-024-026-027-029-231700- MAINE CITY SKY/WX TMP DP RH WIND PRES REMARKS PORTLAND PTSUNNY 59 49 69 S8 30.35F SANFORD PTSUNNY 59 52 77 S9 30.34F BAR HARBOR CLOUDY 55 52 89 S8 30.36F WISCASSET SUNNY 59 51 75 SW6 30.36F ROCKLAND MOSUNNY 56 52 86 SW8 30.35F FRYEBURG SUNNY 60 52 74 VRB3 30.32F LEWISTONAUBURN SUNNY 58 49 72 VRB5 30.34F AUGUSTA MOSUNNY 57 50 77 VRB5 30.33F WATERVILLE MOSUNNY 55 48 76 VRB6 30.30F BANGOR PTSUNNY 58 51 78 S8 30.34F GREENVILLE N/A 48 48 100 SE9 30.28F MILLINOCKET CLOUDY 52 48 86 VRB6 30.32F HOULTON CLOUDY 53 50 89 SW8 30.29F PRESQUE ISLE MOSUNNY 55 47 74 S7 30.28F FRENCHVILLE PTSUNNY 49 43 80 SE7 30.24F CARIBOU CLOUDY 54 46 74 S8 30.27F $$ NHZ002-005-008-009-011-012-014-231700- NEW HAMPSHIRE CITY SKY/WX TMP DP RH WIND PRES REMARKS PORTSMOUTH CLOUDY 58 53 83 CALM 30.33F ROCHESTER PTSUNNY 59 51 75 VRB6 30.33F NASHUA PTSUNNY 61 55 81 VRB3 30.33F MANCHESTER PTSUNNY 61 54 77 VRB6 30.31F CONCORD MOSUNNY 60 51 72 SE7 30.32F LACONIA MOSUNNY 58 49 72 NE6 30.32F PLYMOUTH FAIR 60 48 64 NE3 30.30F BERLIN SUNNY 59 49 69 N6 30.26F WHITEFIELD MOSUNNY 64 47 53 CALM 30.25F JAFFREY CLOUDY 62 55 77 S10 30.32F KEENE CLOUDY 60 54 80 S6 30.30F LEBANON MOSUNNY 63 53 70 SW10 30.26F MT WASHINGTON MOSUNNY 52 19 28 SW26G37 N/A $$ VTZ005-007-008-231700- VERMONT CITY SKY/WX TMP DP RH WIND PRES REMARKS ST JOHNSBURY N/A 61 49 64 MISG 30.24F BURLINGTON PTSUNNY 68 52 56 S20G31 30.19F $$ MAZ007-012-024-CTZ003-RIZ002-NYZ038-NYZ072-231700- SOUTHERN NEW ENGLAND AND NY CITY SKY/WX TMP DP RH WIND PRES REMARKS BOSTON FOG 56 56 100 E7 30.34F VSB<1/4 WORCESTER PTSUNNY 58 55 90 SE5 30.32F NANTUCKET SUNNY 66 63 90 SE10 30.34F PROVIDENCE CLOUDY 62 61 96 CALM 30.34F FOG HARTFORD PTSUNNY 66 57 72 VRB7 30.29F ALBANY PTSUNNY 66 56 70 S12G21 30.23F NEW YORK CITY PTSUNNY 72 60 66 S15 30.25F $$ ANZ081-ANZ082-ANZ150-NHZ014-MEZ023>029-231700- COASTAL MARINE OBSERVATIONS STATION/POSITION TIME TEMP WIND PRES WAVE AIR SEA DIR/SP/G HT/PER (UTC) (F) (DEG/KT/KT) (MB) (FT/S) MOUNT DESERT ROC 1600 52 220/ 14/ 15 1028.3F MATINICUS ROCK 1500 52 240/ 14/ 15 1028.4F ISLE OF SHOALS 1500 53 180/ 4/ 5 1028.0F JEFFREYS LEDGE 1536 58 N/A 2/10 GEORGES BANK BUO 1450 62 59 1029.6 2/ 9 $$ .............KEY.............. WCI - WIND CHILL TC - TEMPERATURE IN CELSIUS VSB - VISIBILITY IN MILES HX - HEAT INDEX FAIR- INDICATES FEW OR NO CLOUDS BELOW 12,000 FT, WITH NO SIGNIFICANT WEATHER AND/OR OBSTRUCTIONS TO VISIBILITY.

USA.gov is the U.S. government's official web portal to all federal, state and local government web resources and services.